カタログに戻る

STARLINK-30424

運用中通信VLEO
NORAD 57857·PAYLOAD·🇺🇸 United States

打ち上げ Sep 12, 2023 から Vandenberg Space Force Base

Loading…

次のパス (今後24時間)

TLE

最新Source: CelesTrak SupGP

元期: Sep 15, 2026, 03:06 UTC

1 57857C 23141T   26258.12965278 -.00007490  00000+0 -24084-3 0  2586
2 57857  53.1565  97.3365 0001375  92.1954 304.9274 15.31707946    11

AllMySatでSTARLINK-30424をリアルタイム追跡

Download on the App Store